Weather History for KCBM - February, 2014

Change the Weather History Date:

Thursday, February 20, 2014

  Actual Average Record
Temperature  
Mean Temperature 64 °F -  
Max Temperature 79 °F 58 °F 80 °F (1997)
Min Temperature 48 °F 39 °F 22 °F (2009)
Growing Degree Days 14 (Base 50)    
Moisture  
Dew Point 59 °F    
Average Humidity 81    
Maximum Humidity 100    
Minimum Humidity 42    
Precipitation  
Precipitation 1.53 in - - ()
Sea Level Pressure  
Sea Level Pressure 29.86 in    
Wind  
Wind Speed 14 mph (SW)    
Max Wind Speed 29 mph    
Max Gust Speed 44 mph    
Visibility 7 miles    
Events Rain , Thunderstorm    
Averages and records for this station are not official NWS values.
T = Trace of Precipitation, MM = Missing Value Source: NWS Daily Summary

Daily Weather History Graph

Daily Weather History Graph

Search for Another Location

Airport or City:

Trip Planner

Search our weather history database for the weather conditions in past years. The results will help you decide how hot, cold, wet, or windy it might be!

Date:

Astronomy

Feb. 20, 2014 Rise Set
Actual Time 6:32 AM CST 5:42 PM CST
Civil Twilight 6:07 AM CST 6:08 PM CST
Nautical Twilight 5:38 AM CST 6:37 PM CST
Astronomical Twilight 5:09 AM CST 7:05 PM CST
Moon 11:18 PM CST (2/20) 9:32 AM CST (2/20)
Length of Visible Light 12h 00m
Length of Day
11h 10m
Waning Gibbous, 70% of the Moon is Illuminated
Feb 20
Waning Gibbous
Feb 22
Last Quarter
Mar 1
New
Mar 8
First Quarter
Mar 16
Full

Hourly Weather History & Observations

Time (CST) Temp. Dew Point Humidity Pressure Visibility Wind Dir Wind Speed Gust Speed Precip Events Conditions
12:58 AM 59.5 °F 58.8 °F 97% 29.94 in 10.0 mi South 9.2 mph - N/A   Clear
1:58 AM 61.5 °F 59.7 °F 94% 29.94 in 10.0 mi South 9.2 mph - N/A   Scattered Clouds
2:03 AM 62.6 °F 60.8 °F 94% 29.93 in 10.0 mi South 8.1 mph - N/A   Mostly Cloudy
2:28 AM 62.6 °F 60.8 °F 94% 29.92 in 10.0 mi South 8.1 mph - N/A   Scattered Clouds
2:58 AM 62.1 °F 61.0 °F 96% 29.93 in 10.0 mi South 8.1 mph - N/A   Partly Cloudy
3:58 AM 63.3 °F 61.3 °F 93% 29.91 in 10.0 mi South 12.7 mph - N/A   Scattered Clouds
4:48 AM 64.4 °F 60.8 °F 88% 29.91 in 10.0 mi South 10.4 mph - N/A   Mostly Cloudy
4:58 AM 63.7 °F 61.7 °F 93% 29.92 in 10.0 mi South 9.2 mph - N/A   Mostly Cloudy
5:13 AM 64.4 °F 60.8 °F 88% 29.91 in 10.0 mi South 10.4 mph - N/A   Mostly Cloudy
5:18 AM 64.4 °F 60.8 °F 88% 29.91 in 10.0 mi South 11.5 mph - N/A   Mostly Cloudy
5:23 AM 64.4 °F 60.8 °F 88% 29.91 in 10.0 mi South 10.4 mph - N/A   Scattered Clouds
5:38 AM 64.4 °F 60.8 °F 88% 29.91 in 10.0 mi South 12.7 mph - N/A   Mostly Cloudy
5:43 AM 64.4 °F 60.8 °F 88% 29.92 in 10.0 mi South 10.4 mph - N/A   Mostly Cloudy
5:58 AM 63.9 °F 61.3 °F 91% 29.93 in 10.0 mi South 12.7 mph - N/A   Mostly Cloudy
6:08 AM 64.4 °F 60.8 °F 88% 29.92 in 10.0 mi South 10.4 mph - N/A   Mostly Cloudy
6:18 AM 64.4 °F 60.8 °F 88% 29.92 in 10.0 mi South 10.4 mph - N/A   Mostly Cloudy
6:23 AM 64.4 °F 60.8 °F 88% 29.93 in 10.0 mi South 12.7 mph - N/A   Mostly Cloudy
6:28 AM 64.4 °F 60.8 °F 88% 29.92 in 10.0 mi South 10.4 mph - N/A   Mostly Cloudy
6:58 AM 64.0 °F 61.2 °F 90% 29.94 in 10.0 mi South 11.5 mph - N/A   Scattered Clouds
7:33 AM 64.4 °F 60.8 °F 88% 29.93 in 10.0 mi South 10.4 mph - N/A   Mostly Cloudy
7:58 AM 66.2 °F 60.8 °F 83% 29.95 in 10.0 mi South 12.7 mph - N/A   Mostly Cloudy
8:03 AM 66.2 °F 60.8 °F 83% 29.94 in 10.0 mi South 10.4 mph - N/A   Mostly Cloudy
8:43 AM 68.0 °F 60.8 °F 78% 29.94 in 10.0 mi South 12.7 mph - N/A   Scattered Clouds
8:53 AM 68.0 °F 60.8 °F 78% 29.94 in 10.0 mi South 13.8 mph 24.2 mph N/A   Mostly Cloudy
8:58 AM 67.8 °F 61.0 °F 79% 29.95 in 10.0 mi South 17.3 mph 21.9 mph N/A   Mostly Cloudy
9:08 AM 68.0 °F 60.8 °F 78% 29.94 in 10.0 mi South 16.1 mph 26.5 mph N/A   Mostly Cloudy
9:18 AM 69.8 °F 60.8 °F 73% 29.94 in 10.0 mi South 15.0 mph 24.2 mph N/A   Mostly Cloudy
9:23 AM 69.8 °F 60.8 °F 73% 29.94 in 10.0 mi South 20.7 mph 24.2 mph N/A   Mostly Cloudy
9:58 AM 72.1 °F 59.7 °F 65% 29.94 in 10.0 mi SSW 15.0 mph 24.2 mph N/A   Scattered Clouds
10:13 AM 73.4 °F 59.0 °F 61% 29.93 in 10.0 mi SSW 17.3 mph 28.8 mph N/A   Mostly Cloudy
10:43 AM 73.4 °F 60.8 °F 65% 29.93 in 10.0 mi SSW 18.4 mph 26.5 mph N/A   Scattered Clouds
10:58 AM 73.2 °F 60.1 °F 63% 29.94 in 10.0 mi SSW 15.0 mph 23.0 mph N/A   Scattered Clouds
11:48 AM 75.2 °F 59.0 °F 57% 29.90 in 10.0 mi SSW 15.0 mph 23.0 mph N/A   Mostly Cloudy
11:58 AM 74.1 °F 59.5 °F 60% 29.91 in 10.0 mi South 13.8 mph - N/A   Scattered Clouds
12:03 PM 73.4 °F 59.0 °F 61% 29.89 in 10.0 mi SSW 15.0 mph 20.7 mph N/A   Mostly Cloudy
12:13 PM 75.2 °F 59.0 °F 57% 29.89 in 10.0 mi SSW 11.5 mph 21.9 mph N/A   Scattered Clouds
12:23 PM 75.2 °F 59.0 °F 57% 29.89 in 10.0 mi SSW 12.7 mph - N/A   Mostly Cloudy
12:33 PM 75.2 °F 57.2 °F 53% 29.88 in 10.0 mi SW 17.3 mph 19.6 mph N/A   Partly Cloudy
12:58 PM 77.5 °F 57.6 °F 50% 29.88 in 10.0 mi SSW 13.8 mph 20.7 mph N/A   Scattered Clouds
1:06 PM 78.8 °F 55.4 °F 44% 29.86 in 10.0 mi SSW 21.9 mph 28.8 mph N/A   Partly Cloudy
1:58 PM 77.9 °F 55.0 °F 45% 29.85 in 10.0 mi South 15.0 mph 27.6 mph N/A   Scattered Clouds
2:58 PM 79.0 °F 54.1 °F 42% 29.82 in 10.0 mi SSW 18.4 mph 25.3 mph N/A   Scattered Clouds
3:58 PM 78.8 °F 54.9 °F 44% 29.81 in 10.0 mi SSW 16.1 mph 26.5 mph N/A   Partly Cloudy
4:58 PM 77.4 °F 55.4 °F 47% 29.80 in 10.0 mi SSW 13.8 mph 19.6 mph N/A   Clear
5:58 PM 75.2 °F 55.6 °F 50% 29.79 in 10.0 mi South 12.7 mph - N/A   Partly Cloudy
6:58 PM 74.8 °F 56.5 °F 53% 29.78 in 10.0 mi South 15.0 mph - N/A   Mostly Cloudy
7:35 PM 73.4 °F 59.0 °F 61% 29.74 in 10.0 mi South 16.1 mph 24.2 mph N/A Thunderstorm Mostly Cloudy
7:36 PM 73.4 °F 59.0 °F 61% 29.74 in 10.0 mi South 16.1 mph 24.2 mph N/A Rain , Thunderstorm Light Rain
7:56 PM 69.8 °F 59.0 °F 68% 29.73 in 10.0 mi South 11.5 mph - N/A Thunderstorm Scattered Clouds
7:58 PM 69.8 °F 59.0 °F 68% 29.74 in 10.0 mi South 12.7 mph 19.6 mph 0.01 in Thunderstorm Scattered Clouds
8:04 PM 71.6 °F 59.0 °F 64% 29.74 in 10.0 mi SSW 15.0 mph 21.9 mph N/A Rain Light Rain
8:14 PM 71.6 °F 60.8 °F 69% 29.74 in 9.0 mi SW 9.2 mph 24.2 mph N/A Rain Light Rain
8:19 PM 69.8 °F 60.8 °F 73% 29.75 in 9.0 mi WNW 8.1 mph 24.2 mph N/A   Light Drizzle
8:24 PM 68.0 °F 62.6 °F 83% 29.74 in 10.0 mi West 9.2 mph - N/A Rain Light Rain
8:29 PM 66.2 °F 62.6 °F 88% 29.74 in 8.0 mi West 10.4 mph - N/A Rain Light Rain
8:45 PM 66.2 °F 62.6 °F 88% 29.73 in 9.0 mi West 3.5 mph - N/A Rain , Thunderstorm Light Thunderstorms and Rain
8:48 PM 66.2 °F 62.6 °F 88% 29.74 in 10.0 mi WNW 9.2 mph - N/A Thunderstorm Thunderstorm
8:51 PM 66.2 °F 64.4 °F 94% 29.76 in 10.0 mi WNW 12.7 mph - N/A Rain , Thunderstorm Light Thunderstorms and Rain
8:56 PM 66.2 °F 64.4 °F 94% 29.79 in 1.0 mi West 21.9 mph 21.9 mph N/A Rain , Thunderstorm Light Thunderstorms and Rain
8:58 PM 66.2 °F 64.4 °F 94% 29.81 in 0.8 mi West 28.8 mph 36.8 mph 0.18 in Rain , Thunderstorm Heavy Thunderstorms and Rain
9:03 PM 64.4 °F 64.4 °F 100% 29.81 in 0.8 mi West 24.2 mph 36.8 mph N/A Rain , Thunderstorm Heavy Thunderstorms and Rain
9:08 PM 64.4 °F 62.6 °F 94% 29.79 in 1.8 mi WNW 23.0 mph 36.8 mph N/A Rain , Thunderstorm Heavy Thunderstorms and Rain
9:18 PM 62.6 °F 60.8 °F 94% 29.80 in 2.5 mi West 18.4 mph 28.8 mph N/A Rain , Thunderstorm Thunderstorms and Rain
9:23 PM 62.6 °F 60.8 °F 94% 29.81 in 3.0 mi WSW 18.4 mph 26.5 mph N/A Rain , Thunderstorm Heavy Thunderstorms and Rain
9:28 PM 62.6 °F 60.8 °F 94% 29.81 in 2.5 mi WSW 18.4 mph 25.3 mph N/A Rain , Thunderstorm Heavy Thunderstorms and Rain
9:33 PM 62.6 °F 60.8 °F 94% 29.80 in 3.0 mi WSW 17.3 mph 23.0 mph N/A Rain , Thunderstorm Heavy Thunderstorms and Rain
9:38 PM 62.6 °F 60.8 °F 94% 29.81 in 3.0 mi West 18.4 mph - N/A Rain , Thunderstorm Thunderstorms and Rain
9:43 PM 62.6 °F 60.8 °F 94% 29.82 in 4.0 mi West 19.6 mph 26.5 mph N/A Rain , Thunderstorm Thunderstorms and Rain
9:47 PM 62.6 °F 62.6 °F 100% 29.82 in 3.0 mi WSW 25.3 mph 34.5 mph N/A Rain Rain
9:51 PM 62.6 °F 62.6 °F 100% 29.82 in 1.8 mi WSW 28.8 mph 43.7 mph N/A Rain , Thunderstorm Heavy Thunderstorms and Rain
9:56 PM 62.6 °F 60.8 °F 94% 29.82 in 1.2 mi West 25.3 mph 43.7 mph N/A Rain , Thunderstorm Heavy Thunderstorms and Rain
9:58 PM 62.6 °F 61.2 °F 95% 29.83 in 1.2 mi West 24.2 mph 43.7 mph 0.60 in Rain , Thunderstorm Heavy Thunderstorms and Rain
10:03 PM 62.6 °F 60.8 °F 94% 29.83 in 1.8 mi West 26.5 mph 43.7 mph N/A Rain , Thunderstorm Heavy Thunderstorms and Rain
10:06 PM 62.6 °F 60.8 °F 94% 29.83 in 2.0 mi West 25.3 mph 34.5 mph N/A Rain Rain
10:11 PM 62.6 °F 60.8 °F 94% 29.83 in 3.0 mi West 25.3 mph 34.5 mph N/A Rain Heavy Rain
10:16 PM 62.6 °F 59.0 °F 88% 29.83 in 2.5 mi WSW 20.7 mph 32.2 mph N/A Rain Heavy Rain
10:21 PM 62.6 °F 59.0 °F 88% 29.82 in 3.0 mi WSW 19.6 mph 31.1 mph N/A Rain Heavy Rain
10:26 PM 62.6 °F 60.8 °F 94% 29.82 in 2.0 mi WSW 19.6 mph 25.3 mph N/A Rain Heavy Rain
10:31 PM 62.6 °F 60.8 °F 94% 29.84 in 2.5 mi WSW 16.1 mph 26.5 mph N/A Rain Light Rain
10:36 PM 62.6 °F 60.8 °F 94% 29.85 in 3.0 mi WSW 21.9 mph 26.5 mph N/A Rain Heavy Rain
10:41 PM 62.6 °F 62.6 °F 100% 29.86 in 1.2 mi WSW 23.0 mph 32.2 mph N/A Rain Heavy Rain
10:51 PM 62.6 °F 62.6 °F 100% 29.87 in 2.0 mi West 13.8 mph 29.9 mph N/A Rain Rain
10:56 PM 62.6 °F 62.6 °F 100% 29.86 in 3.0 mi West 15.0 mph 24.2 mph N/A Rain Heavy Rain
10:58 PM 62.2 °F 61.7 °F 98% 29.88 in 4.0 mi West 15.0 mph 24.2 mph 0.52 in Rain Rain
11:02 PM 62.6 °F 60.8 °F 94% 29.87 in 4.0 mi WNW 16.1 mph 24.2 mph N/A Rain Heavy Rain
11:07 PM 60.8 °F 60.8 °F 100% 29.88 in 3.0 mi NW 20.7 mph 28.8 mph N/A Rain Heavy Rain
11:12 PM 60.8 °F 57.2 °F 88% 29.89 in 3.0 mi NW 19.6 mph 28.8 mph N/A Rain Heavy Rain
11:15 PM 59.0 °F 57.2 °F 94% 29.89 in 4.0 mi NNW 19.6 mph 29.9 mph N/A Rain Rain
11:20 PM 59.0 °F 55.4 °F 88% 29.89 in 6.0 mi NNW 23.0 mph 32.2 mph N/A Rain , Thunderstorm Rain
11:25 PM 57.2 °F 53.6 °F 88% 29.91 in 6.0 mi NNW 21.9 mph 32.2 mph N/A Rain , Thunderstorm Light Rain
11:40 PM 51.8 °F 46.4 °F 82% 29.92 in 3.0 mi NNW 28.8 mph 36.8 mph N/A Rain Heavy Rain
11:45 PM 50.0 °F 44.6 °F 82% 29.94 in 3.0 mi NNW 24.2 mph 36.8 mph N/A Rain Heavy Rain
11:49 PM 50.0 °F 42.8 °F 76% 29.95 in 4.0 mi NNW 20.7 mph 36.8 mph N/A Rain , Thunderstorm Thunderstorms and Rain
11:58 PM 48.4 °F 41.5 °F 77% 29.97 in 4.0 mi NNW 20.7 mph 31.1 mph 0.22 in Rain , Thunderstorm Thunderstorms and Rain